Regional Weather Roundup
Issued by NWS Goodland, KS

Home | Current Version | Previous Version | Text Only | Print | Product List | Glossary Off
Versions: 1 2 3 4 5 6 7 8 9 10 11 12 13 14 15 16 17 18 19 20 21 22 23 24 25 26 27 28 29 30 31 32 33 34 35 36 37 38 39 40 41 42 43 44 45 46 47 48 49 50

373
ASUS43 KGLD 261108
RWRGLD

GOODLAND FORECAST AREA HOURLY WEATHER ROUNDUP
NATIONAL WEATHER SERVICE GOODLAND KS
500 AM MDT SUN MAR 26 2017

...OFFICIAL OBSERVATIONS...

CITY           SKY/WX    TMP DP  RH WIND       PRES   REMARKS
GOODLAND KS    FOG       38  38 100 SE10      29.79F VSB 1/2
HILL CITY KS   CLOUDY    40  40 100 E6        29.87F FOG
IMPERIAL NEB   FOG       39  38  96 SE6       29.83S VSB 1/2
MCCOOK NEB     CLOUDY    40  40 100 SE6       29.85S FOG
AKRON CO       CLOUDY    42  29  59 SE12      29.78F
BURLINGTON CO  FOG       39  39 100 SE12      29.78F VSB 3/4
LIMON CO       CLOUDY    38  33  82 E3        29.78F
$$

...UNOFFICIAL OBSERVATIONS...

CITY           SKY/WX    TMP DP  RH WIND       PRES   REMARKS
LENORA KS        N/A     39  32  76 CALM        N/A
NORTON KS      CLOUDY    39  36  87 CALM      29.85S
SHARON SPRINGS   N/A     38  36  94 CALM        N/A
TRENTON NEB      N/A     39  32  76 S6          N/A
YUMA CO        CLOUDY    37  36  93 E6        29.78F
$$




USA.gov is the U.S. government's official web portal to all federal, state and local government web resources and services.